Language selection

My Weather Profile Weather Topics  | 

Douglas Channel: Past 24 Hour Conditions

 

Bonilla Island

06:00 PM PST 21 January 2022
Disclaimer

This table is a summary of hourly weather conditions for the past 24 hours.
Please note that these observations might not always be representative of weather conditions over their associated marine area.

Date / Time
(PST)
Wind(knots) Conditions Visibility(km) Pressure(kPa) Air tempC) Relative humidity(%) Dew pointC)
21 January 2022
18:00 SE 24 gust 34 N/A N/A 103.1 6 93 5
17:00 SE 30 gust 36 N/A N/A 103.1 6 93 5
16:00 SE 31 N/A N/A 103.1 6 94 5
15:00 SE 30 N/A N/A 103.1 6 93 5
14:00 SE 30 N/A N/A 103.1 6 93 5
13:00 SE 26 gust 35 N/A N/A 103.1 6 93 5
12:00 SE 29 N/A N/A 103.1 7 91 5
11:00 SE 27 gust 36 N/A N/A 103.1 7 90 5
10:00 SE 32 N/A N/A 103.0 6 90 5
9:00 SE 26 gust 32 N/A N/A 103.1 6 93 5
8:00 SE 25 gust 30 N/A N/A 103.0 6 95 5
7:00 SE 28 gust 33 N/A N/A 103.0 6 93 5
6:00 SE 28 N/A N/A 103.0 6 93 5
5:00 SE 16 gust 25 N/A N/A 103.0 6 92 5
4:00 SE 22 gust 30 N/A N/A 103.0 6 91 5
3:00 SE 21 gust 28 N/A N/A 103.0 7 89 5
2:00 SE 19 N/A N/A 103.0 7 91 6
1:00 SE 20 gust 25 N/A N/A 102.9 7 91 5
0:00 SE 18 N/A N/A 102.8 7 93 6
20 January 2022
23:00 SE 17 N/A N/A 102.8 7 93 5
22:00 ESE 8 N/A N/A 102.8 7 89 5
21:00 ESE 8 N/A N/A 102.9 6 90 5
20:00 S 3 N/A N/A 102.8 6 90 5
19:00 S 4 N/A N/A 102.7 6 90 5
18:00 SSW 5 N/A N/A 102.6 7 90 5

Zoom-in to make a selection

Map of Pacific - North Coast marine weather areas Middle Nomad - 46004 South Nomad - 46036 Dixon Entrance Central - 46145 South Moresby - 46147 Nanakwa Shoal - 46181 North Hecate Strait - 46183 North Nomad - 46184 South Hecate Strait - 46185 West Sea Otter - 46204 West Dixon Entrance - 46205 East Dellwood - 46207 West Moresby - 46208 Sartine Island Cape St.James Kindakun Rocks Langara Island Masset Municipal Airport Rose Spit Sandspit Airport Bella Bella Airport Bella Coola Airport Bonilla Island Cathedral Point Cumshewa Island Grey Islet Holland Rock Lucy Islands Lightstation Prince Rupert Airport
Legend:
buoy Buoy
land station Land Station

Pacific - North Coast Area

Another Region

What we are doing

Features

Hello Weather

Hello Weather: our upgraded telephone weather service is here. 1-833-794-3556 or 1-833-79HELLO.

Date modified: